PY2FGD-13 Weather Reports


time (UTC)temp
C
wind
direction
speed
KPH
gust
KPH
rain 1hr
cm
rain 24hr
cm
rain mn
cm
humidity
%
barometer
mb
20260505100747 20 0.0 0.0 0.00 0.00 0.00 84 1020.2
20260505095806 21 0.0 0.0 0.00 0.00 0.00 84 1019.9
20260505094749 22 0.0 0.0 0.00 0.00 0.00 85 1019.8
20260505093747 22 0.0 0.0 0.00 0.00 0.00 85 1019.7
20260505092748 22 0.0 0.0 0.00 0.00 0.00 88 1019.6
20260505091747 21 0.0 0.0 0.00 0.00 0.00 85 1019.5
20260505090803 21 0.0 0.0 0.00 0.00 0.00 86 1019.4
20260505085747 22 0.0 0.0 0.00 0.00 0.00 88 1019.2
20260505084747 20 0.0 0.0 0.00 0.00 0.00 89 1019.5
20260505083748 22 0.0 0.0 0.00 0.00 0.00 88 1019.0
20260505082804 21 0.0 0.0 0.00 0.00 0.00 87 1019.1
20260505081747 21 0.0 0.0 0.00 0.00 0.00 81 1019.0
20260505080747 21 0.0 0.0 0.00 0.00 0.00 81 1018.9
20260505075747 21 0.0 0.0 0.00 0.00 0.00 81 1019.0
20260505074748 21 0.0 0.0 0.00 0.00 0.00 82 1018.8
20260505073803 21 0.0 0.0 0.00 0.00 0.00 81 1018.7
20260505072803 21 0.0 0.0 0.00 0.00 0.00 82 1018.8
20260505071747 21 0.0 0.0 0.00 0.00 0.00 81 1018.8
20260505070747 21 0.0 0.0 0.00 0.00 0.00 82 1018.9
20260505065749 21 0.0 0.0 0.00 0.00 0.00 82 1019.0
20260505064803 21 0.0 0.0 0.00 0.00 0.00 82 1019.0
20260505063803 21 0.0 0.0 0.00 0.00 0.00 82 1019.0
20260505062748 21 0.0 0.0 0.00 0.00 0.00 82 1019.1
20260505061747 21 0.0 0.0 0.00 0.00 0.00 82 1019.2
20260505060747 21 0.0 0.0 0.00 0.00 0.00 83 1019.2
20260505055805 21 0.0 0.0 0.00 0.00 0.00 83 1019.2
20260505054748 21 0.0 0.0 0.00 0.00 0.00 83 1019.3
20260505053748 21 0.0 0.0 0.00 0.00 0.00 83 1019.3
20260505052747 21 0.0 0.0 0.00 0.00 0.00 82 1019.5
20260505051747 21 0.0 0.0 0.00 0.00 0.00 80 1019.5
20260505050747 21 0.0 0.0 0.00 0.00 0.00 80 1019.6
20260505041747 22 0.0 0.0 0.00 0.00 0.00 83 1019.8
20260505040747 21 0.0 0.0 0.00 0.00 0.00 83 1019.8
20260505035747 22 0.0 0.0 0.00 0.00 0.00 84 1019.8
20260505034803 22 0.0 0.0 0.00 0.00 0.00 85 1019.8
20260505033804 22 0.0 0.0 0.00 0.00 0.00 86 1019.8
20260505032747 22 0.0 0.0 0.00 0.00 0.00 86 1019.8
20260505031747 22 0.0 0.0 0.00 0.00 0.00 87 1019.8
20260505030747 22 0.0 0.0 0.00 0.00 0.00 87 1019.7
20260505025747 22 0.0 0.0 0.00 0.00 0.00 87 1019.6
20260505024748 22 0.0 0.0 0.00 0.00 0.00 87 1019.5
20260505023749 22 0.0 0.0 0.00 0.00 0.00 86 1019.5
20260505022747 21 0.0 0.0 0.00 0.00 0.00 84 1019.5
20260505021747 22 0.0 0.0 0.00 0.00 0.00 84 1019.5
20260505020747 21 0.0 0.0 0.00 0.00 0.00 86 1019.5
20260505015747 21 0.0 0.0 0.00 0.00 0.00 85 1019.6
20260505014747 21 0.0 0.0 0.00 0.00 0.00 81 1019.5
20260505013802 21 0.0 0.0 0.00 0.00 0.00 82 1019.6
20260505012747 20 0.0 0.0 0.00 0.00 0.00 88 1020.0
20260505011747 20 0.0 0.0 0.00 0.00 0.00 87 1020.0
20260505010803 20 0.0 0.0 0.00 0.00 0.00 86 1019.8
20260505005747 20 0.0 0.0 0.00 0.00 0.00 86 1019.8
20260505004747 20 0.0 0.0 0.00 0.00 0.00 86 1019.7
20260505003747 20 0.0 0.0 0.00 0.00 0.00 86 1019.6
20260505002805 20 0.0 0.0 0.00 0.00 0.00 87 1019.5
20260505001747 20 0.0 0.0 0.00 0.00 0.00 86 1019.5
20260505000747 20 0.0 0.0 0.00 0.00 0.00 86 1019.5
20260504235747 20 0.0 0.0 0.00 0.00 0.00 85 1019.5
20260504234747 20 0.0 0.0 0.00 0.00 0.00 84 1019.5
20260504233747 20 0.0 0.0 0.00 0.00 0.00 84 1019.3
20260504232747 20 0.0 0.0 0.00 0.00 0.00 84 1019.1
20260504231747 21 0.0 0.0 0.00 0.00 0.00 84 1018.8
20260504230804 21 0.0 0.0 0.00 0.00 0.00 84 1018.7
20260504225748 21 0.0 0.0 0.00 0.00 0.00 84 1018.6
20260504224747 21 0.0 0.0 0.00 0.00 0.00 84 1018.3
20260504223802 21 0.0 0.0 0.00 0.00 0.00 84 1018.3
20260504222747 21 0.0 0.0 0.00 0.00 0.00 83 1018.2
20260504221748 22 0.0 0.0 0.00 0.00 0.00 79 1017.8
20260504220803 22 0.0 0.0 0.00 0.00 0.00 79 1017.9
20260504215748 22 0.0 0.0 0.00 0.00 0.00 79 1017.7
20260504214747 22 0.0 0.0 0.00 0.00 0.00 79 1017.4
20260504213803 21 0.0 0.0 0.00 0.00 0.00 82 1017.4
20260504212747 22 0.0 0.0 0.00 0.00 0.00 79 1017.3
20260504211747 22 0.0 0.0 0.00 0.00 0.00 79 1017.3
20260504210746 22 0.0 0.0 0.00 0.00 0.00 79 1017.2
20260504205748 22 0.0 0.0 0.00 0.00 0.00 79 1017.2
20260504204747 22 0.0 0.0 0.00 0.00 0.00 78 1017.1
20260504203802 22 0.0 0.0 0.00 0.00 0.00 79 1016.9
20260504202750 22 0.0 0.0 0.00 0.00 0.00 78 1016.9
20260504201749 22 0.0 0.0 0.00 0.00 0.00 79 1016.7
20260504200746 22 0.0 0.0 0.00 0.00 0.00 79 1016.6
20260504195748 22 0.0 0.0 0.00 0.00 0.00 79 1016.8
20260504194747 22 0.0 0.0 0.00 0.00 0.00 80 1016.9
20260504193803 22 0.0 0.0 0.00 0.00 0.00 80 1016.8
20260504192746 22 0.0 0.0 0.00 0.00 0.00 81 1016.9
20260504191802 22 0.0 0.0 0.00 0.00 0.00 80 1016.9
20260504190747 22 0.0 0.0 0.00 0.00 0.00 81 1016.9
20260504185748 22 0.0 0.0 0.00 0.00 0.00 77 1016.9
20260504184746 22 0.0 0.0 0.00 0.00 0.00 77 1016.9
20260504183748 22 0.0 0.0 0.00 0.00 0.00 76 1016.8
20260504182747 22 0.0 0.0 0.00 0.00 0.00 86 1016.9
20260504181746 22 0.0 0.0 0.00 0.00 0.00 82 1016.9
20260504180746 22 0.0 0.0 0.00 0.00 0.00 84 1017.0
20260504175746 22 0.0 0.0 0.00 0.00 0.00 77 1017.0
20260504174747 22 0.0 0.0 0.00 0.00 0.00 75 1017.2
20260504173747 22 0.0 0.0 0.00 0.00 0.00 77 1017.3
20260504172802 22 0.0 0.0 0.00 0.00 0.00 74 1017.3
20260504171747 22 0.0 0.0 0.00 0.00 0.00 74 1017.4
20260504170746 22 0.0 0.0 0.00 0.00 0.00 72 1017.4
20260504150746 21 0.0 0.0 0.00 0.00 0.00 74 1018.8
20260504140804 21 0.0 0.0 0.00 0.00 0.00 74 1019.8
20260504130746 20 0.0 0.0 0.00 0.00 0.00 72 1020.7